This is the latest recevied weather packets stored in our database for station/object PU2XNA. If no packets are shown the sender has not sent any weather packets the latest 10 day(s).
| Time | Temp. | Humidity | Pressure | Rain* | Wind** | Luminosity | Snow |
|---|---|---|---|---|---|---|---|
| 1787428802 | 27.22° C | 32% | 1014.1 hPa | - | - | - | - |
| 1787427902 | 27.22° C | 33% | 1014.1 hPa | - | - | - | - |
| 1787427002 | 27.78° C | 32% | 1013.9 hPa | - | - | - | - |
| 1787426102 | 27.78° C | 33% | 1013.7 hPa | - | - | - | - |
| 1787425203 | 28.33° C | 32% | 1013.8 hPa | - | - | - | - |
| 1787424303 | 28.33° C | 33% | 1013.7 hPa | - | - | - | - |
| 1787423402 | 28.89° C | 32% | 1013.8 hPa | - | - | - | - |
| 1787422502 | 28.89° C | 30% | 1013.8 hPa | - | - | - | - |
| 1787421603 | 29.44° C | 28% | 1013.8 hPa | - | - | - | - |
| 1787420704 | 29.44° C | 28% | 1014 hPa | - | - | - | - |
| 1787419803 | 30° C | 29% | 1014 hPa | - | - | - | - |
| 1787418903 | 30° C | 28% | 1014.2 hPa | - | - | - | - |
| 1787418003 | 30° C | 28% | 1014.4 hPa | - | - | - | - |
| 1787417103 | 30° C | 31% | 1014.6 hPa | - | - | - | - |
| 1787416203 | 30° C | 30% | 1014.6 hPa | - | - | - | - |
| 1787415303 | 29.44° C | 31% | 1014.9 hPa | - | - | - | - |
| 1787414403 | 30° C | 33% | 1015.1 hPa | - | - | - | - |
| 1787413503 | 30.56° C | 32% | 1015.4 hPa | - | - | - | - |
| 1787412603 | 30.56° C | 32% | 1015.7 hPa | - | - | - | - |
| 1787411703 | 30° C | 33% | 1015.9 hPa | - | - | - | - |
| 1787410803 | 29.44° C | 36% | 1016.2 hPa | - | - | - | - |
| 1787409903 | 30° C | 36% | 1016.5 hPa | - | - | - | - |
| 1787409003 | 30° C | 36% | 1016.7 hPa | - | - | - | - |
| 1787408102 | 29.44° C | 36% | 1017 hPa | - | - | - | - |
| 1787407202 | 28.89° C | 38% | 1017.2 hPa | - | - | - | - |
* Rain since midnight (hover to see other rain measurements)
** Current wind speed in m/s (hover to see current wind gust speed)